Theta_e
334 334 335 335 335 335 335 335 334 334 334 333 332 332 333 333 333 333 333 333 332 330 329 329 328 329 329 328 329 331 332 333 332 329 329 328 329 329 328 328 327 329 331 330 330 329 329 327 323 321 319 316 316 315 315 314 313 311 311 312 311 312 315 318 318 318 318 318 320 321 321 321 321 320 320 320 320 320 320 320 320 320 320 320 320
334 333 334 334 334 334 334 334 334 334 334 334 333 332 332 332 333 333 332 332 332 330 329 329 329 329 329 328 328 329 331 333 332 330 329 328 329 329 328 329 328 329 331 330 330 329 329 328 327 325 324 323 322 321 320 320 319 317 314 312 312 311 310 313 315 317 318 318 318 319 320 320 319 320 320 320 319 319 320 319 319 319 319 319 319
334 334 334 334 334 334 333 333 333 333 333 333 333 332 332 332 332 332 332 332 331 331 330 329 329 329 328 328 328 328 329 331 331 329 328 328 328 328 329 331 330 328 330 330 330 330 329 329 328 327 325 325 325 325 324 324 323 322 319 315 312 311 311 313 312 313 315 316 316 317 318 318 318 319 320 320 320 320 320 319 320 319 319 318 319
333 334 334 334 334 333 333 332 333 333 332 332 332 332 332 332 332 331 331 331 331 331 331 330 329 328 328 327 327 329 329 330 330 329 329 327 327 327 328 331 332 330 329 330 330 330 330 329 328 328 327 326 326 326 326 325 325 323 321 317 312 310 311 314 313 310 309 310 312 313 315 317 318 318 318 318 319 320 320 319 319 319 319 319 318
333 333 334 334 333 333 332 332 332 332 332 332 332 332 332 332 332 331 332 331 331 331 330 330 329 328 328 327 327 328 328 329 329 329 330 327 325 327 329 331 332 331 330 329 330 330 330 329 328 328 328 328 328 327 326 326 325 324 323 319 314 311 310 312 313 309 306 306 307 307 310 314 314 314 315 316 317 318 319 319 319 319 318 318 318
333 333 334 334 333 332 332 332 332 332 331 331 331 332 331 331 331 332 332 331 331 330 330 329 328 328 328 327 327 327 327 327 327 329 331 328 326 327 330 332 331 331 331 329 329 330 330 329 328 328 328 328 328 328 327 326 325 324 324 322 318 315 313 312 311 310 308 306 305 304 305 308 310 311 313 314 314 315 317 318 318 317 316 316 317
333 334 334 333 333 332 332 332 332 332 331 331 331 331 331 331 331 332 332 332 331 329 329 329 328 328 327 327 327 326 327 327 327 330 331 330 327 327 329 331 330 330 331 329 328 329 330 329 328 327 327 327 327 328 328 328 327 324 325 324 322 320 318 316 313 312 311 309 308 306 303 303 305 306 309 311 311 313 314 315 317 318 317 316 316
333 334 333 333 333 333 333 333 333 333 332 331 331 331 331 330 331 331 331 332 331 329 329 329 328 328 328 328 327 326 326 327 329 330 331 330 327 326 328 329 329 329 330 329 328 329 329 329 329 328 327 326 326 326 326 327 326 324 325 325 323 323 322 321 318 315 314 313 313 312 308 304 302 303 305 307 309 311 313 312 315 318 318 317 316
333 334 333 333 334 333 333 334 334 333 332 331 331 331 331 331 331 331 331 332 330 329 328 329 329 329 328 328 327 327 326 329 331 331 331 330 327 326 326 327 327 327 328 328 328 328 328 328 327 328 327 327 326 327 326 326 325 325 327 326 323 323 323 324 323 322 320 318 318 318 316 310 304 302 302 304 307 311 312 311 314 316 317 318 317
333 333 333 334 333 333 334 334 333 334 332 331 330 331 332 332 331 330 331 331 330 329 329 329 330 329 329 328 328 328 327 329 330 330 331 332 330 328 327 326 326 325 326 327 328 328 328 327 326 327 327 326 326 327 327 326 327 327 328 327 324 322 322 323 323 324 324 323 322 322 321 317 312 309 305 303 305 310 312 312 313 315 315 316 317
332 331 332 334 333 333 334 333 333 333 332 331 331 332 332 332 332 331 330 330 330 329 329 329 330 329 329 329 329 328 328 329 330 331 332 333 333 332 330 328 327 327 326 326 327 328 328 328 327 326 327 326 326 327 327 327 328 327 328 329 327 324 324 325 325 325 324 324 324 324 324 323 320 318 313 306 303 307 313 312 310 313 314 313 315
332 331 332 333 333 332 333 332 332 332 331 331 331 332 332 332 332 332 330 329 330 329 328 329 329 329 329 329 329 329 328 329 330 331 332 332 333 333 332 331 330 330 328 326 326 327 328 328 328 328 327 326 326 326 327 328 328 328 328 329 329 328 328 328 328 327 326 326 325 324 325 325 325 324 321 315 308 308 312 311 309 310 311 312 312
332 331 332 332 332 332 332 332 332 332 331 331 332 332 333 332 332 331 330 329 329 329 329 330 329 329 329 328 329 329 329 329 328 329 330 331 332 332 332 332 331 331 330 329 327 326 327 328 328 328 328 327 326 327 327 328 328 328 329 329 329 330 330 330 329 329 329 329 328 326 325 325 325 325 324 322 319 316 314 311 309 307 306 308 308
331 330 331 332 331 331 331 331 331 331 331 331 332 332 332 332 331 331 330 329 329 328 330 330 330 330 329 328 329 329 328 328 328 328 329 330 331 331 331 331 331 331 330 330 329 327 326 327 328 328 329 328 327 328 328 328 328 328 329 328 328 329 330 330 330 330 330 330 330 329 328 327 326 325 325 325 324 322 320 315 311 307 303 302 303
330 329 330 330 330 331 331 331 330 331 331 331 331 331 332 332 332 331 330 329 329 329 330 330 330 329 329 330 331 330 329 327 327 328 328 328 329 329 330 330 330 330 330 330 330 329 327 327 327 328 329 328 328 328 328 328 328 328 328 328 328 329 330 330 330 329 329 329 329 329 329 329 328 327 326 325 324 323 323 321 316 311 307 303 301
329 328 328 328 328 329 330 330 330 331 331 330 331 330 331 332 331 331 329 329 330 330 331 331 330 329 330 330 328 329 332 328 325 326 327 327 327 327 328 329 329 330 330 330 330 330 329 327 327 328 328 328 328 328 328 328 328 328 328 327 327 328 329 330 329 329 330 330 329 329 329 329 328 328 328 327 326 324 323 323 320 317 314 310 306
328 327 327 326 326 327 328 329 329 330 330 330 331 331 330 330 331 330 329 329 330 331 332 331 330 328 329 329 328 331 334 328 325 326 326 327 327 327 327 328 329 329 329 330 329 329 329 328 328 329 328 328 328 328 328 328 327 327 327 326 326 327 328 328 329 329 329 329 329 329 329 328 328 328 329 328 327 326 324 323 323 322 320 317 315
328 327 327 326 326 327 327 329 329 330 330 330 330 331 330 330 330 330 329 329 330 330 331 330 329 328 328 329 329 331 330 327 327 328 326 326 327 327 327 328 328 328 328 328 328 328 328 327 328 327 327 327 327 327 327 327 326 326 325 325 325 326 326 327 328 329 328 328 329 329 329 329 329 329 328 328 328 328 327 325 324 324 323 322 322
325 325 326 326 327 327 327 328 329 329 329 329 329 330 330 329 329 329 330 330 329 330 330 330 329 328 329 329 328 328 327 327 328 329 327 327 327 327 328 327 327 327 327 327 327 327 326 326 326 326 326 327 327 326 326 326 325 325 325 325 325 325 325 325 326 328 328 328 328 328 328 327 329 328 328 328 328 329 328 327 326 325 325 325 325
324 325 326 326 327 327 327 328 328 327 327 328 328 328 328 329 328 329 329 329 329 329 330 330 329 328 329 329 328 327 327 327 326 327 327 327 327 327 327 327 327 327 327 327 326 326 325 325 325 326 326 326 326 325 325 325 325 324 324 324 324 325 325 325 326 327 328 328 327 328 328 327 328 328 328 327 327 328 328 327 327 326 326 325 325
325 326 325 325 326 326 326 326 326 326 326 327 327 327 328 328 328 328 328 328 329 329 329 329 328 328 329 329 328 327 327 327 326 325 325 327 328 328 327 327 327 327 326 326 326 325 324 325 325 325 325 325 324 324 323 323 323 324 323 323 323 323 323 323 324 324 324 324 323 324 325 325 325 326 327 327 327 327 327 326 326 326 325 325 325
326 326 325 323 324 325 325 326 326 325 326 327 327 327 328 328 328 328 328 327 328 328 328 328 328 328 329 329 328 327 326 326 325 325 324 325 327 327 326 326 327 326 326 325 325 325 324 324 323 322 322 321 320 319 319 319 319 319 319 318 317 316 315 316 316 315 316 316 315 315 316 317 317 317 318 320 321 322 324 324 324 323 322 323 324
325 324 324 323 323 324 325 325 325 324 325 327 328 328 328 328 328 327 327 327 327 327 327 328 328 328 328 328 328 327 327 326 325 325 324 323 325 326 325 325 326 326 325 324 324 324 322 319 317 316 316 315 314 313 312 312 312 312 312 311 310 310 309 309 309 309 309 309 309 309 309 309 309 309 309 310 312 314 315 316 316 316 315 316 318
325 324 323 323 323 324 325 324 324 324 325 326 327 328 328 328 328 327 327 327 327 327 327 327 327 327 327 327 327 327 327 326 326 325 324 324 325 324 324 325 325 325 324 323 321 319 316 314 312 312 312 311 311 310 310 309 309 308 308 307 307 306 306 305 305 305 305 305 305 305 306 306 307 307 307 307 308 308 309 309 309 310 310 310 311
324 324 323 322 322 323 324 324 324 323 324 325 325 326 326 326 326 325 325 325 325 325 326 326 326 325 326 326 326 326 327 326 325 325 325 325 324 324 324 325 324 324 324 322 317 314 312 311 311 311 310 310 309 308 308 307 306 305 305 305 304 304 304 304 304 304 304 304 304 303 303 303 303 304 304 305 306 306 307 307 307 308 308 308 309
323 323 322 322 321 321 322 323 322 322 323 323 323 324 325 325 322 319 318 319 320 321 320 321 321 322 324 326 325 326 326 326 325 325 325 325 324 324 323 323 324 324 324 321 316 314 314 312 311 310 308 308 307 305 304 304 303 303 303 303 304 304 305 306 306 306 306 305 305 304 303 302 301 301 301 301 301 302 302 303 304 305 306 306 306
322 321 321 322 322 320 319 320 320 320 320 321 321 322 323 323 319 316 316 316 315 316 316 316 317 318 320 322 324 325 326 326 325 324 324 324 324 324 323 322 323 322 320 319 316 315 315 314 312 310 307 306 305 304 304 304 303 303 304 304 305 306 307 307 307 307 307 307 306 305 304 304 303 302 301 300 299 299 299 299 299 300 301 301 302
321 321 320 320 321 320 318 318 319 319 319 319 318 318 320 320 317 315 316 315 315 315 315 315 315 315 316 316 319 322 324 326 324 323 322 322 323 323 322 322 322 318 316 316 316 315 315 314 313 311 307 306 306 306 306 306 305 305 305 306 306 307 308 308 308 308 308 308 307 306 305 305 303 302 302 302 301 301 300 299 299 299 298 298 298
322 321 320 319 320 320 318 317 318 318 317 316 315 315 316 317 316 316 316 315 314 314 314 314 314 314 314 313 313 315 319 322 323 323 322 322 322 322 322 322 319 317 317 318 317 315 315 314 313 311 308 306 307 308 307 307 307 306 306 307 307 308 308 308 308 308 308 308 307 307 307 306 304 302 301 302 301 301 301 300 300 300 299 299 298
320 320 320 318 318 319 318 316 316 316 315 315 315 315 315 315 315 316 316 315 315 314 313 313 312 313 314 313 313 313 315 318 320 321 321 321 322 321 321 321 319 316 317 318 317 315 315 315 312 310 308 306 307 308 308 307 307 307 307 308 308 308 308 308 309 309 308 308 307 307 307 307 306 304 302 301 301 301 302 301 301 300 299 299 298
317 317 317 317 317 318 318 317 316 315 314 315 316 315 314 313 314 315 315 314 314 313 313 312 311 311 312 313 313 313 314 315 315 316 316 318 319 320 320 320 319 317 316 315 314 314 314 314 311 308 307 306 307 308 308 308 307 307 307 307 308 308 308 308 309 308 308 307 307 307 306 307 306 305 304 303 302 301 302 302 302 301 300 300 300
314 315 315 316 317 317 317 316 315 314 314 314 314 314 313 312 312 313 313 313 313 313 314 314 313 312 312 313 313 312 313 313 313 314 314 315 317 318 319 319 317 316 316 314 311 311 313 312 309 307 307 306 307 309 309 308 308 308 307 307 307 308 308 308 308 308 308 307 307 306 306 306 306 305 305 304 303 302 302 302 303 302 302 301 301
314 315 315 316 316 316 316 316 315 313 313 314 314 314 313 313 313 313 313 313 313 313 314 315 314 313 312 312 313 312 312 313 313 313 314 315 315 316 318 317 315 315 314 312 309 308 310 311 308 307 307 307 307 308 309 309 308 308 308 307 307 307 308 308 308 308 308 307 306 306 306 306 306 305 305 305 304 304 303 302 302 302 303 303 302
315 315 314 314 315 316 316 315 315 314 314 315 315 315 314 314 314 314 315 314 313 313 314 314 314 314 313 313 313 313 313 313 314 314 314 315 315 315 315 315 314 313 312 311 309 307 307 309 309 308 307 307 308 308 309 309 309 308 308 308 307 307 308 309 308 308 307 306 306 306 306 306 306 305 305 305 304 304 303 302 301 301 302 303 303
316 316 315 314 315 316 316 315 315 314 314 315 315 315 314 315 315 315 315 315 314 313 313 313 313 313 313 313 315 315 314 314 314 314 314 315 315 313 312 312 312 311 310 310 308 307 307 308 308 308 307 307 307 308 309 309 309 309 308 308 308 307 308 308 308 308 307 306 305 305 306 306 306 305 305 304 304 303 303 302 302 302 302 302 303
316 317 316 316 316 316 315 316 315 315 315 315 315 314 315 315 314 314 314 314 314 314 313 313 313 312 312 312 314 315 315 315 315 315 315 314 314 313 312 311 311 311 309 309 308 307 306 307 307 307 307 307 308 309 308 308 309 309 308 308 308 309 308 308 308 307 307 306 306 306 306 306 305 305 304 304 303 302 302 302 302 303 303 303 303
316 317 318 317 316 316 316 316 316 316 317 316 315 315 316 316 314 313 314 314 313 313 313 313 314 314 313 313 313 314 315 315 315 315 315 314 314 314 313 312 312 311 309 309 308 307 307 307 307 308 308 309 309 308 308 308 309 309 309 309 309 309 308 308 308 307 307 306 306 306 306 306 305 304 303 302 302 301 301 302 303 303 303 303 303
316 317 318 318 317 317 317 317 316 317 317 317 317 315 315 316 315 314 315 315 315 315 314 314 316 316 317 316 315 314 314 314 315 315 315 315 315 314 314 313 312 310 309 308 308 308 307 307 308 309 310 310 309 308 308 309 309 310 309 309 309 308 308 308 307 307 306 306 306 306 306 305 304 303 302 301 301 302 302 303 303 303 303 303 303
317 317 318 318 318 318 318 318 317 317 318 318 318 316 315 316 317 316 316 316 318 318 316 315 316 317 317 318 317 317 316 314 315 315 315 315 315 315 314 314 313 311 311 311 310 308 308 308 309 311 311 311 309 309 309 309 310 310 310 309 309 308 308 308 307 307 307 307 306 306 305 304 303 302 301 301 302 302 303 303 303 302 302 302 302
317 317 318 318 318 318 318 317 317 318 318 318 319 318 317 317 318 318 318 318 319 319 319 318 317 318 318 318 317 318 317 316 315 316 315 315 315 315 315 314 314 314 313 313 313 311 309 309 309 311 312 311 311 310 309 310 310 310 310 310 309 309 308 308 307 307 307 306 306 305 304 302 301 301 300 301 302 302 303 303 303 302 302 302 302
318 317 318 318 317 317 317 317 317 317 318 317 318 319 319 319 319 319 319 319 319 319 320 320 319 319 319 319 318 318 318 317 316 316 316 314 314 314 315 314 314 314 314 314 314 313 312 312 312 312 312 312 311 310 310 310 310 310 309 309 308 308 307 307 307 306 306 305 304 304 303 301 300 300 300 301 302 302 303 303 303 302 301 301 301
320 319 319 318 317 316 317 317 317 317 318 318 318 318 319 319 320 320 321 320 320 320 320 320 320 320 320 320 319 319 319 318 318 318 317 316 315 314 314 314 313 313 313 314 314 314 314 314 313 313 312 311 311 311 310 310 309 309 308 308 308 307 307 307 306 305 304 303 303 302 302 300 300 300 301 301 301 302 303 302 301 300 300 300 300
321 320 320 318 317 317 317 317 317 317 318 318 318 318 319 319 320 321 321 321 321 321 321 321 321 321 320 320 320 320 319 319 319 319 319 317 316 316 315 313 312 312 312 313 313 314 314 314 313 313 312 311 310 310 310 309 308 308 308 308 307 306 305 304 303 303 302 301 301 300 300 300 300 300 300 300 300 301 301 300 299 299 299 299 299
322 322 321 320 319 319 318 318 319 319 319 318 318 319 320 320 320 321 321 321 321 321 321 321 321 320 320 319 320 320 320 320 319 319 319 318 317 317 316 314 313 312 312 313 313 313 313 313 313 313 312 311 310 309 309 309 308 308 307 306 305 304 303 301 300 300 300 299 299 299 299 299 300 300 300 299 300 300 299 298 298 298 298 298 298
323 323 322 322 321 320 320 319 319 319 319 319 319 319 319 319 319 320 320 320 320 320 320 321 321 321 320 319 319 320 320 320 320 320 319 318 317 317 316 315 314 314 313 313 313 313 313 313 313 312 312 311 310 309 309 309 308 307 306 305 304 303 302 301 300 299 299 298 298 299 299 299 299 299 299 298 298 299 298 298 298 297 298 298 297
323 323 323 323 322 322 321 321 320 320 319 319 320 320 319 319 319 319 319 319 319 319 320 321 321 321 321 320 319 319 320 320 319 319 319 318 317 316 316 315 314 314 313 312 313 312 312 313 313 312 312 311 311 310 310 309 308 306 304 303 303 302 301 300 299 299 299 299 298 298 299 299 298 298 298 297 297 297 297 297 297 297 297 297 297
321 321 321 321 321 321 321 321 321 321 320 320 319 319 320 320 320 320 319 319 319 319 320 320 320 320 320 320 319 319 319 319 319 319 319 317 316 316 315 315 314 313 312 312 312 311 311 311 312 311 311 311 310 310 309 307 306 304 303 303 302 301 300 299 298 298 298 298 298 298 298 298 297 297 297 297 296 296 296 296 296 296 296 296 296
320 320 321 321 320 320 319 320 320 320 320 320 320 320 320 321 321 320 320 319 319 319 319 319 319 319 319 319 318 318 318 319 318 318 318 317 316 316 315 314 313 312 311 310 310 310 310 310 310 310 310 310 309 308 306 305 304 303 303 302 301 300 299 298 298 298 298 298 297 297 297 296 296 296 296 296 296 296 296 296 296 296 296 296 296
314 315 316 318 319 319 319 319 318 318 319 319 320 320 321 322 322 321 320 320 319 319 319 318 318 318 318 318 317 317 317 318 318 318 318 317 315 316 316 313 311 310 310 309 309 309 309 308 308 308 308 307 306 305 304 303 303 303 302 301 300 299 298 298 298 298 298 297 297 297 296 296 296 295 295 295 296 295 295 295 296 295 295 295 295
307 308 310 312 314 317 318 318 318 318 317 317 318 320 321 322 322 322 321 320 320 319 319 319 319 319 318 317 316 316 316 317 318 318 318 317 316 316 316 313 311 309 309 309 308 308 308 307 307 306 305 305 304 303 303 302 302 302 301 301 300 299 299 298 298 298 298 297 296 296 296 295 295 295 294 294 295 295 295 295 295 294 294 293 293
305 306 306 308 309 312 314 316 317 318 317 317 316 318 320 322 322 322 321 321 320 320 320 319 319 318 317 316 316 316 316 317 317 318 318 318 317 316 316 313 311 309 309 308 307 307 307 306 305 304 304 304 303 302 302 302 302 302 302 302 301 300 299 299 298 297 297 297 295 295 295 294 294 294 294 293 293 294 294 294 293 293 293 293 293
Wind_Speed
8 8 7 7 6 5 4 4 3 3 3 3 4 3 2 1 1 2 3 3 3 3 4 4 2 3 5 5 6 7 7 11 14 13 12 12 11 10 9 9 10 12 13 11 9 9 7 5 7 8 10 11 12 11 11 11 11 10 10 9 10 10 10 10 10 10 10 11 11 11 11 10 8 8 8 9 10 10 10 10 10 10 10 10 10
8 8 7 6 5 4 4 5 5 4 4 5 5 4 3 2 2 3 2 2 3 3 4 4 3 5 6 5 5 6 8 11 12 12 13 12 10 10 11 11 11 13 13 11 10 10 8 6 8 7 7 10 10 10 10 10 10 9 8 8 9 9 9 9 9 9 9 9 10 10 10 9 9 9 9 8 9 10 10 10 10 10 10 11 10
9 8 8 6 5 4 4 5 5 4 4 6 6 5 5 4 3 3 2 1 3 3 3 3 3 5 7 6 5 6 8 10 10 11 13 12 11 10 11 12 11 12 14 12 9 10 9 8 8 7 5 7 8 8 8 9 9 9 8 7 8 8 9 9 9 9 8 8 9 9 9 9 9 9 9 9 10 10 9 10 10 9 10 11 11
10 9 8 7 5 4 4 4 4 3 3 3 4 4 4 5 4 2 1 1 2 3 3 4 5 7 6 5 6 7 8 9 9 11 12 13 13 12 12 13 11 10 12 12 10 8 9 9 9 7 6 6 5 6 7 8 8 8 8 7 7 8 8 8 8 8 9 8 8 8 8 8 8 8 9 9 9 10 10 10 10 10 9 10 10
10 9 8 7 5 5 5 5 4 4 3 3 3 3 4 4 3 2 1 2 3 4 4 4 6 7 5 5 7 8 8 8 8 9 12 14 15 14 15 15 13 11 9 11 10 8 9 8 8 8 8 8 6 5 7 7 7 7 7 7 7 8 7 7 7 7 8 8 8 8 8 8 7 8 8 8 9 10 10 9 9 9 8 8 8
10 8 8 7 5 5 6 6 5 4 3 3 3 4 4 4 4 3 2 3 4 5 5 5 7 7 6 5 7 8 8 9 9 10 11 14 14 14 17 16 14 12 10 10 10 9 9 7 6 7 8 8 6 5 6 6 6 5 5 6 7 7 7 7 7 7 7 7 7 7 7 7 7 7 7 7 8 9 8 8 8 7 7 8 9
10 9 8 7 5 5 5 6 6 5 4 4 4 4 4 4 4 3 3 5 6 7 6 6 8 8 8 6 7 9 9 9 9 10 11 13 13 14 16 15 13 13 11 11 11 9 9 7 5 6 8 6 4 4 3 4 4 3 3 5 6 7 7 7 6 6 6 6 7 7 6 7 6 6 6 6 7 7 7 7 7 7 7 8 8
10 9 7 6 5 5 5 6 6 5 4 4 4 4 5 4 3 3 3 6 7 7 7 8 10 10 9 8 9 10 10 10 10 10 10 12 12 14 15 14 12 12 11 11 11 10 9 9 7 6 7 6 5 4 3 4 4 2 3 4 5 6 6 6 7 6 6 6 6 6 5 6 6 5 6 6 6 6 6 6 7 6 7 7 6
9 9 7 5 5 5 6 6 6 5 4 4 4 5 6 5 4 4 3 5 7 7 8 9 11 13 11 9 9 9 10 11 11 10 10 11 12 14 14 12 12 11 11 10 11 11 10 9 8 8 8 7 7 6 5 4 4 4 5 5 4 5 5 5 6 7 7 7 6 5 5 4 5 5 4 5 5 5 5 5 6 6 6 6 6
8 7 6 6 6 7 8 7 6 5 4 5 6 6 6 5 4 5 4 5 6 7 9 10 12 14 13 10 8 8 8 10 11 9 10 11 11 12 12 12 12 10 10 10 10 11 10 8 8 9 8 8 7 6 6 5 5 5 4 5 6 5 6 6 5 6 6 7 7 6 6 4 4 4 3 3 4 4 4 4 4 5 5 6 6
6 5 6 6 6 6 7 6 5 4 4 6 7 6 6 4 4 5 5 5 7 9 11 12 13 15 14 12 10 9 8 8 8 8 11 11 10 11 12 12 11 9 9 9 10 10 9 7 7 6 6 8 9 8 7 7 7 6 5 5 6 5 6 5 4 5 5 5 5 5 5 4 4 3 2 2 2 3 3 3 3 4 4 5 6
5 5 6 5 4 4 4 3 3 3 4 5 7 7 6 5 3 3 4 6 9 12 12 13 16 16 14 12 10 10 9 8 8 8 9 9 8 9 11 11 10 10 9 8 9 9 9 8 7 6 5 7 9 10 9 8 9 7 5 3 3 5 5 4 3 2 3 4 3 3 3 3 3 3 3 2 2 2 2 2 2 3 3 4 5
5 5 5 4 4 4 4 4 3 3 4 5 6 7 6 5 4 2 3 6 10 12 13 14 15 14 12 11 10 10 9 7 7 7 7 7 6 6 7 8 8 9 9 8 8 8 9 8 7 6 6 7 9 10 10 9 9 6 3 2 4 6 6 5 4 4 4 3 2 2 2 1 1 1 2 2 2 2 0 1 2 3 3 3 4
6 5 4 4 3 4 5 5 5 5 6 7 6 6 7 6 4 4 5 7 8 11 14 11 9 9 9 8 6 7 9 8 8 7 6 5 5 5 5 5 5 5 7 8 9 9 8 8 8 9 8 7 8 8 8 8 8 5 3 4 5 5 6 5 5 6 5 4 4 5 3 1 1 1 1 2 2 2 1 1 2 2 2 3 3
8 6 6 5 5 5 6 6 7 7 7 7 5 5 6 5 4 5 7 9 8 10 10 7 9 11 8 5 2 4 6 8 10 9 7 6 5 5 4 4 4 4 6 8 9 9 9 8 9 9 7 6 7 7 7 6 6 5 2 2 4 4 4 5 6 6 5 4 5 6 6 5 4 3 2 1 1 1 2 1 2 3 3 3 3
9 8 7 7 7 6 6 7 8 8 7 6 5 5 4 4 5 5 8 10 10 8 6 7 14 12 4 2 2 3 2 2 7 10 9 9 8 6 6 6 7 7 7 7 6 6 7 7 7 7 4 4 5 6 6 6 5 4 2 2 4 5 4 4 5 5 3 3 5 6 6 6 6 6 4 3 2 1 2 2 2 2 3 4 4
8 7 7 7 7 6 6 7 7 8 7 6 5 5 3 4 4 4 7 9 10 9 7 8 12 9 4 3 2 2 2 4 4 7 9 11 10 9 8 8 8 7 7 6 6 4 3 3 3 4 3 3 3 4 5 5 5 3 1 1 1 4 5 4 3 3 2 2 3 5 7 6 6 6 6 5 5 4 3 2 2 2 2 3 3
8 7 7 6 6 5 5 6 6 7 6 6 6 5 5 5 4 5 6 7 8 10 10 9 8 6 5 4 5 4 6 7 4 3 7 10 12 11 10 9 9 8 7 7 6 5 3 3 2 1 1 1 1 2 2 0 2 2 3 3 2 0 2 2 2 3 1 1 2 2 4 5 5 5 4 6 8 8 5 3 3 2 1 2 2
9 8 7 6 5 5 6 8 8 7 7 7 7 7 6 6 4 5 6 5 6 9 11 10 9 7 6 4 6 9 12 9 4 4 3 5 9 12 11 9 9 8 8 8 8 7 6 5 5 5 5 5 5 5 6 6 5 6 6 4 3 2 2 3 3 5 6 3 1 2 1 1 2 3 3 5 7 9 9 8 7 5 4 4 4
9 9 8 7 6 7 8 10 10 9 8 9 9 8 8 7 6 5 5 5 5 8 11 10 9 9 9 9 7 10 10 5 6 9 5 2 5 8 9 9 10 9 8 9 9 9 8 8 8 8 8 6 6 7 8 8 8 7 7 6 5 4 5 6 6 8 10 8 7 7 6 4 3 2 3 2 3 6 8 9 9 9 9 8 8
11 10 10 9 8 9 10 11 11 10 9 9 9 7 7 8 8 7 7 7 7 7 9 9 10 12 12 12 12 11 8 6 7 11 7 4 3 3 7 10 10 10 9 10 10 9 10 10 10 9 9 8 8 9 9 10 9 9 9 9 9 9 9 9 8 9 10 11 11 11 10 9 8 6 6 4 2 2 4 5 5 5 7 8 9
12 11 10 10 9 10 12 12 11 10 9 9 9 7 7 8 8 8 8 9 9 8 9 10 10 12 14 14 14 13 9 6 6 9 10 7 5 5 7 8 9 10 11 11 11 10 11 11 10 10 11 11 11 12 12 12 12 12 12 11 11 12 11 11 10 10 10 11 12 13 12 11 11 10 9 8 7 5 5 4 5 6 6 5 4
12 11 9 9 10 11 14 13 12 11 11 11 11 10 9 9 9 9 9 9 9 8 10 10 10 10 12 13 15 16 13 9 10 11 11 9 7 5 7 10 10 11 12 11 10 11 12 12 13 13 13 13 13 14 14 14 14 14 13 13 12 12 12 11 11 11 11 11 12 13 13 12 12 12 12 12 11 10 9 8 8 9 9 9 7
14 12 11 9 10 13 15 15 14 14 14 13 13 13 12 11 11 11 10 10 10 10 11 10 8 8 9 11 13 14 13 13 14 12 13 17 15 8 8 11 9 9 13 11 9 11 12 13 13 13 12 13 13 13 14 14 14 13 12 12 12 12 12 12 12 12 12 12 12 12 12 11 11 11 11 11 11 10 10 10 10 10 10 10 9
15 14 12 10 11 13 14 15 15 13 13 14 14 14 13 13 13 12 12 11 11 11 11 10 8 8 8 9 10 11 12 14 14 11 15 21 19 12 11 10 8 10 12 9 8 10 11 12 11 10 10 11 12 12 12 12 12 11 11 12 13 13 14 14 15 15 15 15 14 13 13 12 11 10 10 9 9 8 8 8 8 8 8 8 8
14 14 13 12 12 13 14 15 15 13 13 13 13 13 13 14 14 14 13 12 13 14 13 12 10 9 9 9 9 10 13 14 13 13 18 21 20 16 13 9 10 11 9 7 9 7 7 9 10 9 9 9 10 11 11 12 12 11 12 13 15 16 17 18 18 19 19 18 17 15 15 14 13 12 11 10 10 9 8 8 7 7 7 7 7
13 14 13 13 12 12 13 15 15 13 13 12 12 13 13 15 15 15 14 15 16 17 17 16 15 14 13 12 12 11 12 14 14 16 20 21 21 21 18 11 7 6 5 7 7 4 7 9 8 8 8 8 9 11 12 13 12 13 13 14 16 17 18 19 19 20 20 20 19 18 17 17 16 15 14 13 12 11 11 10 9 8 8 8 7
13 13 12 12 13 13 14 14 15 14 13 12 12 13 14 16 16 16 17 17 18 18 17 17 17 18 18 18 17 15 13 14 16 17 18 17 18 19 20 16 10 4 3 4 3 3 9 9 7 7 7 8 10 11 13 13 13 13 13 14 15 16 17 18 18 18 19 20 20 20 19 20 19 16 15 15 14 13 13 12 11 11 10 9 9
13 12 11 11 13 15 14 15 15 14 13 14 15 16 16 17 17 17 17 17 17 16 15 15 15 16 18 20 20 18 16 15 16 17 16 16 16 17 18 20 18 10 4 3 3 6 10 8 6 7 7 7 9 11 11 12 12 12 12 13 14 14 15 16 16 16 17 19 19 18 19 20 21 19 17 16 15 15 15 14 13 12 12 11 11
13 13 12 12 14 15 15 15 15 14 15 16 17 17 17 18 18 18 17 16 15 14 13 13 13 13 15 18 19 19 18 17 16 15 15 16 17 18 20 21 21 17 11 6 4 8 13 10 7 9 9 9 9 9 10 10 11 11 12 12 12 12 12 13 13 14 16 17 17 17 16 17 19 19 19 19 18 17 17 17 16 14 13 13 13
14 15 15 15 15 15 14 14 14 14 15 16 16 16 16 17 18 17 15 14 14 14 14 14 14 14 14 16 18 18 18 18 17 14 12 12 14 19 23 23 21 21 20 14 5 9 15 12 9 10 11 10 8 8 9 9 9 9 10 9 9 10 10 10 11 12 14 15 16 16 14 14 16 17 18 20 21 20 20 19 18 16 14 14 15
16 17 17 17 16 15 14 14 13 14 15 16 16 16 16 16 17 17 15 14 15 16 15 14 13 14 15 15 15 16 16 16 15 13 11 9 10 16 24 27 24 23 23 18 9 9 15 14 11 12 11 10 9 6 8 9 8 6 7 6 6 7 7 8 9 10 12 13 14 15 13 13 14 15 16 18 20 21 21 20 18 17 16 15 17
18 18 17 17 17 16 16 15 14 15 16 17 17 16 17 17 17 17 16 15 15 14 13 12 11 12 14 14 14 13 13 13 13 11 10 9 9 13 22 27 28 25 22 19 14 12 13 14 13 13 13 11 8 6 6 7 7 6 5 5 4 4 5 6 7 8 10 11 13 13 12 11 11 12 14 15 17 20 22 22 19 17 16 15 16
19 17 16 17 17 16 16 16 15 15 16 17 16 16 17 17 16 15 14 14 13 13 12 12 10 10 10 11 12 10 10 11 12 11 11 10 10 13 21 26 27 24 19 17 17 15 13 14 16 15 14 12 9 8 7 6 5 5 4 3 3 2 2 4 4 6 8 9 11 12 11 10 9 10 12 13 15 17 20 23 21 17 16 15 15
18 16 15 17 17 16 17 17 16 16 16 15 15 16 16 15 15 15 14 13 12 12 11 11 10 9 8 8 9 9 8 9 12 13 12 12 12 16 22 24 23 21 18 16 16 17 15 15 17 17 15 14 11 8 8 7 5 5 5 3 3 4 3 3 4 5 6 8 10 11 12 10 9 10 11 12 14 16 20 23 20 16 15 15 14
18 16 14 15 16 17 19 18 17 16 15 14 15 15 14 13 15 16 15 13 12 11 10 10 9 7 7 7 7 8 7 8 10 12 12 13 14 17 19 20 19 18 18 17 16 18 18 16 16 17 15 14 12 9 10 9 7 7 7 5 6 8 7 4 5 6 6 7 8 10 12 12 10 10 12 14 16 19 21 20 16 14 14 14 13
17 16 15 15 16 18 19 18 17 16 15 15 15 15 13 12 15 16 14 13 12 10 10 9 7 6 6 6 6 6 6 7 8 8 11 14 15 16 17 17 16 16 17 18 16 18 20 18 16 16 14 13 13 11 11 10 9 9 9 9 9 10 7 4 5 5 4 6 8 9 11 12 11 12 15 18 19 19 18 15 13 13 13 12 12
17 18 17 16 17 18 18 17 17 17 16 15 14 14 14 13 13 14 13 12 11 11 11 11 9 7 7 6 6 6 7 8 7 7 8 11 14 15 15 15 15 16 17 16 15 17 19 18 16 15 14 14 14 13 11 10 12 13 14 12 10 8 6 4 4 4 4 5 7 9 11 12 13 16 17 17 16 15 13 12 12 13 12 11 10
16 17 18 17 17 18 18 18 17 17 17 16 13 14 16 14 12 12 13 13 12 12 13 13 12 10 9 9 8 7 7 9 9 8 8 9 12 14 14 14 15 15 14 14 15 16 18 18 16 14 13 13 14 13 11 11 12 13 12 11 8 5 2 2 2 2 3 5 8 11 13 14 14 14 14 12 12 12 11 11 12 15 15 13 11
15 16 16 17 17 17 18 19 18 17 17 17 16 15 16 16 14 14 14 14 13 13 14 14 14 12 10 11 11 10 10 10 9 9 9 10 12 14 14 14 14 14 13 12 13 16 17 17 16 13 12 12 12 13 13 13 13 11 9 7 5 2 1 2 3 4 7 10 12 14 15 14 13 11 11 11 10 10 10 11 13 15 15 14 12
14 14 14 17 19 17 17 19 19 19 19 19 18 17 18 17 17 16 16 16 15 14 13 13 14 13 11 11 12 12 12 12 11 10 10 11 13 14 13 13 12 11 12 12 12 14 15 15 15 13 11 11 13 15 15 13 11 9 7 5 3 1 2 3 4 8 11 13 15 16 15 13 12 11 11 11 10 9 9 11 12 12 11 11 12
11 11 12 17 19 16 15 17 18 19 21 21 20 19 19 19 19 18 17 17 17 16 15 14 14 14 14 13 13 14 14 14 14 13 12 12 13 13 13 13 12 10 9 11 12 12 13 14 14 13 12 13 13 14 13 10 8 8 6 4 2 2 5 7 9 10 12 14 16 17 15 12 11 11 10 9 10 10 9 9 10 10 10 10 10
9 9 11 14 16 15 14 14 14 15 18 20 20 19 20 20 20 19 19 18 18 17 16 16 16 15 15 15 15 16 16 17 17 17 16 15 14 13 13 15 16 13 11 11 13 14 14 13 14 14 15 15 13 12 12 10 8 7 4 1 1 5 7 8 9 10 11 14 15 16 14 10 7 8 8 8 9 9 10 11 11 12 12 11 10
7 8 8 9 11 11 12 12 11 12 13 16 18 18 18 19 20 19 19 19 19 19 18 18 18 17 17 18 18 18 18 18 18 19 18 16 15 14 13 14 14 13 13 14 15 15 15 15 15 15 16 16 15 13 12 11 8 5 2 1 4 6 6 6 6 9 12 13 13 14 13 10 7 7 7 8 8 8 10 13 13 13 13 12 11
3 5 6 7 8 9 10 10 11 11 12 14 15 16 17 18 18 19 20 20 20 20 20 19 19 19 19 20 21 21 20 19 20 21 21 19 17 15 14 13 13 13 13 13 13 13 13 14 15 15 15 14 14 12 11 9 6 3 0 3 5 5 6 6 7 9 11 10 10 11 10 8 7 7 8 9 10 10 12 14 13 13 13 13 13
5 6 7 8 9 9 10 11 12 12 13 13 14 15 16 17 18 19 19 20 20 20 20 19 19 19 20 21 22 22 22 21 22 23 23 22 20 18 16 15 14 14 13 12 11 10 10 11 11 11 12 11 10 10 9 7 4 1 2 3 4 6 6 6 6 6 7 7 9 9 7 6 7 9 10 12 13 13 15 15 14 15 15 15 14
9 10 11 10 8 9 10 11 13 14 14 15 15 15 16 16 17 18 19 20 20 21 20 20 20 20 21 22 22 22 22 23 24 24 25 25 23 20 18 16 16 15 14 12 11 10 8 8 7 7 9 9 8 7 6 3 1 2 3 4 6 6 4 3 2 3 4 6 8 7 5 6 9 10 12 14 15 16 16 14 15 16 15 14 14
10 12 14 13 10 9 9 10 12 14 14 15 16 17 16 16 16 18 19 20 20 21 22 21 21 22 22 23 23 22 22 22 23 25 26 25 22 20 18 18 17 16 15 13 11 10 8 7 6 6 8 8 6 4 2 1 2 3 4 5 5 3 1 1 1 2 4 6 6 6 7 8 10 11 14 16 18 18 16 12 12 12 13 14 15
8 9 11 12 11 11 10 10 10 12 13 14 15 16 16 16 17 17 18 20 21 22 23 22 22 23 23 23 22 21 21 21 22 24 26 25 22 20 19 18 17 16 15 13 12 10 8 7 7 7 8 7 4 1 0 1 3 3 3 3 2 2 1 1 1 3 6 5 5 7 10 10 10 13 17 18 19 19 14 10 10 12 15 17 18
11 11 12 12 12 12 13 13 12 12 13 14 15 17 17 17 17 17 18 19 21 22 23 23 23 23 23 22 21 21 21 20 21 22 24 24 23 20 18 18 18 17 16 15 13 12 11 10 9 9 7 5 3 1 1 2 2 2 2 2 2 3 3 1 1 4 6 5 6 10 13 11 11 14 16 17 19 16 10 10 13 16 18 18 17
14 14 15 15 14 13 13 14 15 15 16 15 15 16 17 18 18 19 19 20 21 22 22 22 23 23 22 21 20 20 20 19 20 22 23 23 21 19 18 19 20 19 18 16 14 13 13 12 10 8 6 4 4 3 3 3 2 2 3 3 4 4 4 2 2 4 4 4 7 12 13 11 11 13 13 13 12 10 9 11 15 19 18 15 15
Wind_Direction
190 187 183 179 179 177 174 177 175 173 180 194 213 209 226 285 296 327 340 352 358 0 14 23 47 68 65 76 120 140 145 161 161 157 158 156 154 150 159 175 168 158 159 161 155 149 147 137 130 125 122 122 121 120 119 117 114 112 114 115 114 115 118 119 116 117 119 118 116 117 116 113 112 109 109 113 109 102 98 99 96 90 96 99 98
197 197 194 189 193 199 195 197 197 204 214 214 217 222 239 271 299 315 325 351 0 3 19 29 70 72 67 78 112 135 150 167 173 177 177 171 168 158 160 175 171 164 166 165 160 154 150 146 143 139 128 122 119 121 121 117 113 113 116 119 120 121 123 125 122 121 121 120 121 121 122 121 115 109 106 106 107 105 101 100 94 90 97 100 98
203 201 200 198 201 206 198 193 197 205 214 217 221 230 238 254 275 297 304 8 22 35 47 46 83 79 66 77 112 133 150 171 180 179 178 172 166 161 165 178 177 167 167 166 166 161 150 149 156 160 146 128 120 123 124 117 116 119 123 128 130 130 129 128 126 125 126 125 126 125 123 123 117 112 112 109 108 108 106 105 100 93 93 98 101
211 206 200 197 196 199 194 186 189 191 190 200 211 223 240 253 260 267 270 41 48 70 74 67 89 93 72 78 122 145 154 162 167 170 180 178 166 166 173 181 185 176 167 164 169 173 159 152 162 171 171 161 143 134 129 122 122 123 124 132 135 135 133 131 130 129 130 129 129 130 127 125 122 123 124 120 119 120 115 110 108 105 100 100 107
221 211 197 194 191 183 177 174 177 174 173 187 195 205 225 234 222 214 171 94 86 88 86 85 94 100 87 87 127 148 158 168 178 180 184 179 168 172 176 179 186 184 172 166 169 180 175 163 164 173 182 188 182 155 139 131 130 125 121 126 133 136 136 134 134 130 130 131 129 129 130 129 129 132 130 125 128 130 124 119 123 125 117 110 109
221 211 196 191 187 176 167 160 162 155 155 161 174 192 206 207 192 180 137 103 98 98 99 102 97 101 105 112 132 143 161 179 192 189 183 181 175 176 178 180 185 185 182 178 176 184 190 183 168 168 179 194 203 181 156 143 132 123 121 126 130 134 136 135 133 132 131 130 128 126 129 131 132 135 132 127 131 134 129 129 134 131 119 111 110
217 210 201 188 177 176 169 156 150 140 136 140 158 183 200 200 182 161 139 111 104 105 107 108 104 106 108 117 137 149 160 169 178 182 183 186 179 174 180 185 187 186 188 188 185 185 189 191 174 165 176 189 197 185 187 179 154 127 126 140 139 131 128 131 133 136 137 134 129 125 128 131 131 136 136 133 132 132 133 139 136 123 115 110 110
211 205 198 182 164 167 166 155 149 141 140 146 162 177 183 187 175 164 145 113 106 108 109 107 109 114 113 114 125 145 160 161 165 170 174 180 176 172 179 187 190 191 194 191 190 185 180 185 182 173 178 182 178 178 195 199 191 177 151 147 148 139 127 124 124 125 132 138 136 129 129 135 134 134 140 139 134 133 136 143 142 132 127 119 111
193 192 186 167 155 165 163 156 157 152 147 147 160 162 156 161 161 158 150 118 109 111 115 112 111 115 119 122 119 130 148 154 156 158 165 175 176 175 178 187 193 192 193 193 194 192 187 192 196 192 190 187 186 184 175 179 200 195 164 137 133 146 141 132 128 125 123 124 129 123 119 135 135 130 138 146 144 145 146 144 146 145 141 133 123
176 180 175 158 154 167 167 163 169 165 145 138 151 154 142 142 142 134 139 138 118 113 122 122 117 114 114 119 118 123 138 153 158 158 167 173 177 179 179 188 194 188 187 193 196 196 195 198 204 206 206 202 195 184 177 186 193 199 192 154 132 134 140 143 140 135 127 118 119 114 104 112 122 119 123 147 157 156 154 146 147 151 152 151 142
169 171 175 169 161 167 170 169 174 161 142 145 154 155 149 153 148 122 128 136 119 117 126 123 116 112 113 116 111 111 126 144 153 157 166 173 180 185 186 191 194 189 186 193 198 199 200 201 199 204 209 209 203 188 187 196 188 200 223 184 150 146 149 149 137 123 126 126 125 120 111 105 100 101 102 121 149 155 161 161 157 162 166 168 162
157 164 173 173 164 163 166 163 166 152 142 157 160 155 157 166 167 136 126 128 119 119 127 124 112 106 110 116 113 114 127 143 147 147 157 170 180 185 191 194 192 193 194 194 201 201 201 202 198 197 197 201 205 199 198 204 197 198 216 202 178 190 194 192 180 156 147 141 136 129 125 117 98 85 86 92 92 120 165 181 173 180 181 178 179
146 153 159 161 157 153 154 158 171 164 150 166 167 160 167 170 165 147 121 130 126 125 131 126 113 106 105 110 114 116 120 135 140 138 144 156 173 177 188 194 193 204 202 195 204 204 201 204 205 209 206 199 205 208 209 218 220 215 219 235 228 221 224 222 222 234 218 191 194 174 128 119 126 90 73 74 56 54 124 231 211 201 198 194 194
139 135 141 150 142 132 144 157 165 161 159 171 169 162 171 171 164 148 129 133 132 135 140 128 114 119 116 107 104 98 94 102 109 109 123 138 153 159 171 184 194 212 204 197 205 206 206 206 209 220 218 208 214 220 221 230 238 243 237 234 245 249 246 240 241 247 234 222 230 227 225 232 203 159 98 69 46 31 13 293 246 224 210 209 206
127 118 122 128 123 123 134 143 146 148 158 169 164 155 164 164 160 153 143 138 130 136 146 139 134 133 120 109 101 82 77 80 84 82 94 113 119 132 153 162 161 171 179 193 203 205 208 207 213 226 222 212 226 235 241 248 258 274 282 239 256 275 269 252 249 250 245 235 235 235 234 240 246 228 186 111 63 18 352 331 268 240 228 219 214
122 113 112 110 112 123 130 133 136 142 152 159 154 148 153 162 163 158 152 145 134 133 134 137 144 142 120 88 94 93 90 85 78 71 80 98 99 99 120 140 149 157 161 172 184 195 205 204 215 232 221 204 221 232 238 245 259 284 314 274 254 255 256 262 264 261 258 251 244 241 240 243 247 244 233 218 202 265 318 335 331 276 250 235 225
130 124 120 111 110 116 125 129 130 137 145 146 142 135 137 165 174 169 163 156 148 142 133 142 154 158 156 144 119 95 170 175 118 68 68 87 94 95 106 128 144 153 154 153 158 170 185 184 209 241 236 202 201 211 222 239 256 265 356 15 257 244 248 266 299 302 284 262 249 241 244 242 239 245 248 244 239 251 285 302 312 316 291 266 249
140 133 131 126 117 112 120 126 126 132 138 136 136 134 138 153 162 167 168 168 161 149 145 155 162 157 150 176 227 220 167 154 142 69 65 79 91 100 104 117 131 136 140 143 144 139 129 134 150 144 128 122 130 167 159 160 232 165 112 95 87 127 255 275 348 19 66 237 265 253 254 245 233 243 247 243 243 247 254 261 270 282 311 310 293
144 139 141 145 136 123 121 127 131 134 138 136 132 130 135 143 151 161 166 174 174 159 153 156 155 146 134 150 224 203 163 147 148 144 104 73 89 98 100 111 124 125 125 123 119 119 117 116 106 91 91 86 74 79 83 85 103 110 101 95 87 63 40 51 46 58 81 104 71 54 17 285 237 265 271 248 238 243 248 252 256 256 263 284 293
144 140 137 145 153 146 132 133 135 131 131 135 131 126 127 135 140 148 160 166 175 171 162 159 156 148 129 123 150 174 170 167 144 132 124 98 95 93 95 103 112 117 116 113 116 123 119 107 100 99 102 101 93 92 92 95 100 101 98 94 88 75 66 72 71 68 78 87 86 82 79 77 78 47 19 3 246 254 262 260 255 247 249 257 257
145 143 130 127 144 153 146 142 139 131 129 134 133 128 125 128 133 139 150 156 161 169 163 161 162 151 138 132 137 154 174 187 142 116 109 129 122 105 111 105 102 107 111 115 120 124 117 109 108 110 112 109 105 103 102 103 104 101 100 97 93 88 84 84 80 73 75 80 81 81 84 84 77 73 65 48 12 312 314 305 298 288 280 271 259
148 150 137 125 128 145 151 148 142 133 129 132 134 134 131 127 127 129 135 144 151 159 155 153 156 152 150 150 148 150 156 169 153 120 109 115 118 133 135 119 109 108 113 121 122 117 113 112 110 108 110 109 109 110 109 108 105 102 100 98 95 91 88 86 81 75 75 76 77 77 78 79 73 70 68 61 58 51 38 24 14 15 11 355 307
157 154 147 133 123 134 144 143 135 124 119 125 129 130 128 123 122 122 125 134 142 148 148 148 152 156 164 169 165 163 164 176 182 154 128 128 132 133 132 125 117 116 123 126 119 114 113 112 109 107 108 110 110 111 111 108 105 103 102 99 96 92 87 84 80 75 72 70 71 71 70 70 68 65 64 63 64 63 61 58 53 53 55 51 42
162 157 150 141 126 131 139 134 126 120 117 121 125 127 126 124 124 123 123 126 130 134 138 142 150 155 168 181 178 175 177 182 184 167 145 145 144 134 135 131 115 118 130 125 112 113 113 108 106 105 107 109 110 110 108 106 105 104 105 102 95 91 85 79 76 72 68 65 63 63 64 63 62 60 58 59 60 58 56 54 53 53 54 52 49
155 156 153 148 133 133 141 136 129 125 124 126 127 130 132 130 126 122 122 126 129 132 134 136 138 136 145 162 170 176 180 178 179 170 150 148 143 133 139 137 123 130 133 123 117 117 113 108 102 97 101 107 109 107 104 102 102 101 101 100 94 90 85 80 75 69 64 60 57 55 56 55 54 52 50 49 49 48 44 39 38 38 39 40 39
151 154 154 153 140 134 139 139 136 134 133 134 134 134 136 134 127 120 118 123 126 124 121 120 120 121 125 130 135 152 166 172 178 170 155 151 148 142 139 127 122 135 138 136 133 123 116 114 101 94 98 106 109 107 104 99 97 98 97 97 95 89 85 79 72 65 58 53 50 49 49 47 46 44 42 40 38 36 32 27 21 16 13 13 14
156 156 158 158 149 138 136 140 141 140 140 140 140 141 142 137 128 119 117 122 123 117 112 110 108 107 109 109 113 128 151 163 170 167 160 157 156 152 144 130 122 129 134 149 151 145 145 131 109 102 99 105 112 106 102 97 94 98 98 96 93 88 83 76 67 60 53 47 45 45 43 40 38 37 36 35 33 31 28 25 19 12 6 1 358
156 159 164 164 158 146 136 139 144 145 145 146 144 145 147 142 132 122 119 123 123 117 114 113 109 106 104 103 106 116 138 155 160 162 161 160 163 162 154 147 144 130 119 152 162 160 160 148 124 121 108 107 117 108 98 94 94 99 99 95 92 87 79 70 63 56 49 44 42 42 41 36 32 31 29 28 26 25 23 21 18 15 10 5 2
164 167 169 168 164 154 141 140 146 148 148 145 142 141 143 144 138 128 124 126 125 120 119 118 116 113 108 103 103 111 129 148 159 168 173 174 176 178 173 164 155 145 136 172 182 180 179 171 148 146 134 120 122 117 107 97 97 104 102 97 94 87 77 67 60 54 46 41 38 37 36 33 31 30 27 25 24 23 20 16 14 12 10 10 8
170 175 174 168 162 158 150 145 147 149 148 147 144 144 144 145 143 135 132 135 132 127 127 126 125 123 116 108 104 107 120 133 144 159 175 188 198 198 189 179 169 161 154 156 183 195 190 185 173 163 151 140 131 124 121 108 101 109 110 103 95 87 78 68 61 54 45 39 34 31 29 30 30 28 27 27 26 23 19 16 12 10 12 14 14
169 172 172 167 160 159 157 154 153 154 154 155 155 155 152 149 147 141 138 141 136 131 128 125 127 130 126 117 109 108 117 125 130 134 146 171 197 201 191 187 188 180 165 153 159 196 192 188 178 166 153 146 142 130 131 129 117 116 119 114 100 91 84 72 64 55 43 36 30 25 23 24 26 25 24 24 23 20 17 14 13 14 17 18 17
167 167 168 168 165 164 163 159 158 157 159 161 161 159 153 146 144 142 139 138 133 130 129 124 125 131 132 129 120 115 119 125 130 131 135 148 173 191 191 189 191 188 174 159 148 175 188 188 176 167 160 155 155 148 139 141 142 136 132 134 117 96 85 71 64 54 41 34 28 23 19 18 20 21 19 17 16 14 11 9 7 9 12 13 13
167 169 172 174 171 169 165 162 160 158 158 158 156 154 148 141 140 139 138 137 133 133 135 133 132 132 132 133 129 126 126 126 132 138 144 151 159 182 191 188 185 184 179 167 151 156 181 190 180 173 172 170 169 171 161 150 156 163 160 166 158 115 82 67 63 51 38 33 30 27 21 15 13 15 15 12 8 5 3 1 357 356 358 1 5
170 173 175 174 170 168 166 165 166 164 161 160 159 157 151 147 146 147 148 144 139 139 143 146 148 145 139 133 126 128 132 131 138 145 149 154 159 172 183 183 180 180 183 176 160 154 169 184 184 180 181 184 184 184 184 170 162 178 184 189 197 172 96 66 64 50 37 35 36 35 27 15 7 6 5 2 359 357 355 352 348 344 344 346 352
173 174 171 170 169 170 170 170 171 170 167 167 167 165 163 160 158 158 157 155 149 149 153 156 158 161 161 149 129 127 136 139 144 150 151 155 159 163 170 176 177 179 187 188 173 162 163 173 185 187 187 192 197 199 196 189 191 208 208 213 220 195 158 100 79 57 44 41 39 37 28 12 357 352 353 352 350 348 345 344 342 338 335 334 337
174 173 172 173 173 172 173 174 176 177 175 175 174 175 177 177 173 165 160 161 164 167 170 166 164 170 178 174 151 137 142 147 149 154 156 158 163 164 165 171 176 180 187 190 184 174 166 167 180 188 192 198 203 210 209 203 210 223 216 200 177 162 147 116 84 66 56 46 38 31 19 3 349 343 343 340 337 336 336 338 341 339 332 327 326
174 175 177 179 177 175 176 179 181 181 180 179 181 184 183 178 177 172 166 169 175 180 185 180 169 168 172 173 171 165 166 165 161 162 162 162 165 169 171 174 179 183 185 188 190 184 175 172 176 183 195 204 206 214 220 205 183 175 171 163 156 149 137 110 92 79 60 41 30 20 5 352 342 334 331 330 331 335 337 339 344 344 338 330 323
177 181 184 186 188 185 184 185 183 181 182 183 187 191 186 175 175 178 176 176 177 180 188 188 180 175 170 171 181 188 195 196 189 183 178 172 169 170 174 179 183 187 187 187 188 185 182 182 179 179 188 200 206 211 212 196 174 160 153 148 144 141 128 107 103 85 49 30 17 5 353 342 332 326 328 335 342 345 347 347 348 349 347 342 334
186 189 192 194 197 199 197 193 186 184 187 190 191 190 188 184 183 185 184 182 179 177 182 186 186 187 184 186 195 204 212 214 206 200 199 191 178 170 167 169 176 180 183 187 190 190 190 188 185 184 185 190 201 202 193 187 181 170 162 158 153 147 123 70 73 47 16 360 349 348 346 339 332 330 337 350 356 354 355 359 357 352 349 347 346
198 200 204 202 201 206 209 205 198 193 194 197 197 192 189 190 192 192 190 191 190 183 181 184 188 194 196 193 199 210 218 222 219 210 209 205 194 181 168 162 165 167 166 172 183 191 194 192 190 192 187 182 184 182 178 182 184 179 180 187 186 178 352 359 358 344 341 341 339 341 344 339 335 338 345 351 354 351 349 352 350 346 343 343 345
205 208 211 207 205 209 215 214 209 204 203 204 203 199 196 195 196 197 196 199 202 198 193 194 198 205 208 204 206 214 219 222 225 222 216 209 204 197 187 178 175 172 168 167 169 175 183 188 192 192 181 171 168 166 167 174 178 177 180 187 184 164 341 334 341 341 340 339 336 337 342 340 333 334 340 346 349 343 335 341 347 349 348 348 349
214 214 211 206 207 213 216 216 215 213 212 212 209 205 204 202 201 201 202 203 206 207 205 206 209 211 213 214 218 223 225 226 228 231 228 220 215 213 211 209 209 206 196 186 180 178 177 180 187 187 170 158 164 168 168 168 167 166 171 178 184 332 334 332 335 339 341 338 333 331 338 339 329 332 346 359 358 356 357 360 1 2 359 356 353
206 203 199 201 207 215 220 220 220 219 217 216 213 210 208 206 204 205 207 208 208 210 212 215 218 218 218 220 223 225 228 229 229 232 235 232 229 227 224 222 225 230 228 212 196 188 182 174 177 183 173 158 159 168 166 163 163 166 169 171 345 346 346 341 331 332 340 340 331 327 335 348 350 349 1 11 10 13 15 8 0 355 351 347 345
199 197 196 200 207 214 220 221 218 215 212 210 210 209 208 208 209 211 214 216 217 219 223 225 228 231 233 233 231 228 229 230 230 231 231 231 232 232 229 225 223 225 227 222 209 198 190 177 168 173 173 163 158 161 162 162 163 160 150 8 349 343 345 339 326 334 344 341 331 327 336 355 8 357 353 357 1 2 358 353 351 348 345 344 343
232 231 229 227 226 229 229 227 225 221 215 212 213 216 218 219 222 224 225 228 232 234 235 234 235 238 241 241 239 235 233 234 233 230 227 225 223 224 224 223 220 217 217 220 216 209 204 192 178 173 176 173 170 170 172 173 171 168 300 334 335 332 333 335 339 347 347 340 338 339 340 350 358 346 338 341 341 340 342 343 343 339 337 339 340
279 290 282 264 252 252 249 245 244 240 235 231 227 227 230 230 231 233 235 237 240 242 241 238 238 242 243 242 242 241 238 236 234 229 224 220 216 215 217 217 217 216 214 212 210 206 205 204 195 184 182 185 187 183 180 181 184 202 317 323 323 321 324 334 346 356 355 350 351 351 342 342 346 336 332 335 333 333 337 337 332 328 327 327 329
280 283 283 279 270 266 266 263 257 254 249 245 242 241 241 239 238 239 239 240 242 243 242 241 242 246 248 249 250 247 242 238 235 230 223 217 213 211 212 213 213 211 209 208 206 204 205 212 216 205 190 187 187 184 181 187 224 323 328 319 314 312 314 336 352 9 13 357 349 350 347 346 346 337 330 330 327 327 331 329 322 321 321 322 326
278 268 267 273 278 276 274 271 268 266 260 253 250 248 246 244 243 241 241 242 243 244 244 244 246 249 251 253 253 250 244 239 235 229 222 216 211 209 210 211 209 207 206 206 206 208 214 217 218 210 192 182 180 184 191 265 308 313 307 304 301 288 269 339 334 352 356 342 339 352 352 344 341 335 327 322 320 323 326 319 312 313 315 319 322
311 302 296 295 291 283 273 267 269 274 273 266 259 253 248 245 244 243 244 244 244 246 246 245 247 250 250 250 248 245 241 237 232 226 220 215 210 207 207 205 202 201 201 201 201 197 195 193 185 177 173 170 171 177 249 294 295 288 285 292 270 227 238 325 327 339 343 334 334 348 344 336 332 331 326 321 320 322 318 303 302 310 316 320 319
339 336 334 327 314 299 288 279 273 273 277 276 269 259 251 246 246 248 248 247 245 244 244 244 245 246 245 244 242 239 236 233 228 221 218 215 209 203 203 202 198 197 196 193 189 182 176 175 171 166 166 162 153 162 210 234 247 257 286 308 248 235 255 278 317 336 338 334 336 339 337 331 327 331 331 325 323 322 306 290 307 322 327 329 328
339 333 332 331 327 322 313 302 291 281 277 276 272 265 256 250 250 253 252 250 246 243 242 242 244 244 243 242 239 235 232 228 222 217 215 213 209 205 206 202 196 195 193 189 184 179 176 176 173 168 165 158 159 176 191 201 226 274 298 292 260 249 250 246 323 342 338 328 330 334 334 329 326 333 339 333 326 320 303 302 319 331 335 334 331